Location: Anglesey
(53.1800°N, 4.2200°W)
Time: 17:29:44
(UTC+00:00)

Envisat - Visible Passes

Search period start: 10 December 2018 00:00
Search period end: 20 December 2018 00:00
Orbit: 764 x 766 km, 98.2° (Epoch: 10 December)

Date Brightness Start Highest point End Pass type
(mag) Time Alt. Az. Time Alt. Az. Time Alt. Az.
10 Dec 5.4 07:06:29 10° NE 07:10:41 25° E 07:14:50 10° SSE visible
10 Dec 4.6 16:51:22 10° ENE 16:53:46 14° NE 16:56:11 10° NNE visible
10 Dec 2.9 18:26:51 10° SSE 18:31:51 60° ENE 18:36:52 10° N visible
10 Dec 5.0 20:07:07 10° SW 20:11:16 25° W 20:15:26 10° NW visible
11 Dec 6.0 06:31:02 10° NE 06:33:26 13° E 06:35:49 10° ESE visible
11 Dec 3.6 17:50:49 10° SE 17:55:18 33° ENE 17:59:50 10° N visible
11 Dec 3.9 19:29:20 10° S 19:34:12 47° W 19:39:09 10° NNW visible
12 Dec 4.6 07:31:40 10° NNE 07:36:28 39° E 07:41:12 10° SSE visible
12 Dec 4.2 17:15:24 10° E 17:18:56 19° NE 17:22:30 10° N visible
12 Dec 2.9 18:52:16 10° SSE 18:57:21 88° WSW 19:02:30 10° NNW visible
12 Dec 5.6 20:34:05 10° WSW 20:37:09 16° W 20:40:13 10° NW visible
13 Dec 5.7 06:55:31 10° NE 06:59:21 21° E 07:03:10 10° SE visible
13 Dec 4.8 16:41:06 10° ENE 16:42:46 12° NE 16:44:25 10° NNE visible
13 Dec 3.1 18:15:49 10° SE 18:20:41 50° ENE 18:25:37 10° N visible
13 Dec 4.7 19:55:31 10° SSW 19:59:58 30° W 20:04:25 10° NNW visible
14 Dec 6.3 06:20:58 10° ENE 06:22:02 11° E 06:23:07 10° E visible
14 Dec 3.8 17:39:56 10° ESE 17:44:12 28° ENE 17:48:30 10° N visible
14 Dec 3.5 19:17:58 10° S 19:22:57 57° W 19:28:00 10° NNW visible
15 Dec 5.0 07:20:36 10° NNE 07:25:11 33° E 07:29:44 10° SSE visible
15 Dec 4.4 17:04:45 10° E 17:07:54 17° NE 17:11:03 10° NNE visible
15 Dec 2.8 18:41:06 10° SSE 18:46:10 77° ENE 18:51:17 10° NNW visible
15 Dec 5.4 20:22:11 10° SW 20:25:48 19° W 20:29:25 10° NW visible
16 Dec 5.8 06:44:39 10° NE 06:48:01 17° E 06:51:21 10° SE visible
16 Dec 3.3 18:04:48 10° SE 18:09:33 42° ENE 18:14:20 10° N visible
16 Dec 4.4 19:44:01 10° SSW 19:48:40 36° W 19:53:21 10° NNW visible
17 Dec 4.0 17:29:07 10° ESE 17:33:07 24° ENE 17:37:08 10° N visible
17 Dec 3.2 19:06:40 10° S 19:11:44 69° WSW 19:16:50 10° NNW visible
17 Dec 5.9 20:49:51 10° WSW 20:51:45 12° W 20:53:38 10° WNW visible
18 Dec 5.3 07:09:33 10° NE 07:13:53 27° E 07:18:10 10° SSE visible
18 Dec 4.6 16:54:13 10° E 16:56:52 14° NE 16:59:31 10° NNE visible
18 Dec 2.9 18:29:58 10° SSE 18:34:59 64° ENE 18:40:02 10° N visible
18 Dec 5.1 20:10:27 10° SW 20:14:28 23° W 20:18:30 10° NW visible
19 Dec 5.9 06:33:56 10° NE 06:36:39 14° E 06:39:22 10° ESE visible
19 Dec 3.5 17:53:51 10° SE 17:58:26 35° ENE 18:03:02 10° N visible
19 Dec 4.0 19:32:34 10° S 19:37:24 43° W 19:42:15 10° NNW visible
